www.pogodaiklimat.ru

Погода и климат >> Архив погоды >> Канада >> Dubawnt Lake


ПОГОДА в Dubawnt Lake

  • Прогноз погоды в Dubawnt Lake
  • Монитор погоды в Dubawnt Lake
  • Климат города

АРХИВ ПОГОДЫ в Dubawnt Lake

Время (UTC), дата Ветер
(напр.,м/с)
 
Видим.   Явления Облачность Т
(С)
Тd
(С)
f
(%)
Тe
(С)
Тes
(С)
Комфортность P
(гПа)
Po
(гПа)
Тmin
(С)
Tmax
(С)
R
(мм)
R24
(мм)
S
(см)
03 18.06 Ю 2 16 км 10/0
[]
+21.7 +5.2 34 +22 +22 комфорт 1013.7 953.1
06 18.06 ЮЗ 3 16 км 10/0
[]
+20.4 +6.5 40 +22 +22 комфорт 1014.2 953.7 +6.0 +26.2 21
09 18.06 ЮЗ 5 16 км 10/0
[]
+20.2 +5.1 37 +21 +21 комфорт 1014.3 953.9
12 18.06 З 4 16 км 9/0
[]
+18.9 +6.8 45 +19 +20 1015.0 954.5 +18.6 +26.2
15 18.06 З 4 16 км 9/0
[]
+21.1 +7.7 42 +22 +25 комфорт 1015.8 955.2
18 18.06 З 5 16 км ясно +26.9 +8.1 30 +27 +34 жарко 1015.3 955.0 +18.6 +26.9
21 18.06 СЗ 6 16 км слаб. дождь 10/0
[]
+23.4 +9.1 40 +25 +27 комфорт 1015.4 954.9
00 19.06 З 4 16 км ясно +27.5 +8.5 30 +27 +31 жарко 1015.1 954.7 +18.6 +29.7
03 19.06 З 2 16 км ясно +24.1 +9.9 41 +25 +26 комфорт 1015.2 954.8
06 19.06 СВ 1 16 км ясно +14.0 +10.5 79 +15 +15 1016.6 955.9 +13.9 +29.7 21
09 19.06 ЮЗ 1 16 км ясно +10.9 +8.5 85 +11 +11 1017.2 956.1
12 19.06 В 2 16 км ясно +14.3 +12.3 88 +14 +16 1017.1 956.4 +10.2 +29.7
15 19.06 В 4 16 км ясно +21.8 +12.4 55 +24 +30 комфорт 1016.9 956.4
18 19.06 В 4 16 км ясно +26.8 +10.8 37 +28 +37 жарко 1016.7 956.0 +10.2 +27.3
21 19.06 В 4 16 км ясно +27.4 +10.0 34 +28 +35 жарко 1015.9 955.1
00 20.06 Ю 3 16 км 3/0 2000 м
[]
+28.2 +10.0 32 +28 +32 жарко 1014.7 954.2 +10.2 +29.3
03 20.06 Ю 4 16 км 5/0
[]
+24.7 +10.0 39 +26 +26 жарко 1013.7 953.4
06 20.06 Ю 4 16 км ясно +21.6 +11.7 53 +24 +24 комфорт 1013.2 953.0 +10.2 +29.3
09 20.06 ЮЗ 2 16 км ясно +17.4 +11.3 67 +18 +18 1012.7 952.4
12 20.06 ЮЗ 3 16 км ясно +21.0 +10.9 52 +23 +25 комфорт 1012.1 952.0 +14.5 +29.3
15 20.06 З 5 16 км ясно +28.0 +10.5 34 +29 +32 жарко 1011.5 951.6
18 20.06 СЗ 5 16 км ясно +31.2 +9.1 25 +30 +37 жарко 1011.1 951.3 +14.5 +31.5
21 20.06 СЗ 5 16 км ясно +32.5 +7.0 20 +31 +37 жарко 1011.1 951.1
00 21.06 СЗ 4 16 км ясно +32.1 +6.9 21 +30 +33 жарко 1010.4 950.6 +14.5 +33.3
03 21.06 СВ 3 16 км ясно +27.2 +11.1 37 +28 +28 жарко 1010.5 950.8
06 21.06 С 1 16 км ясно +17.4 +12.4 72 +19 +19 1011.3 951.3 +14.5 +33.3 21
09 21.06 СВ 1 16 км ясно +13.8 +11.1 84 +14 +14 1011.7 951.5
12 21.06 СВ 2 16 км ясно +17.4 +13.1 76 +18 +20 1011.8 951.8 +13.1 +33.3
15 21.06 В 4 16 км ясно +26.6 +12.7 42 +28 +33 жарко 1011.4 951.6
18 21.06 В 4 16 км ясно +30.1 +11.7 32 +31 +39 жарко 1011.4 951.3 +13.1 +30.4
21 21.06 ЮВ 1 16 км зарница {осадки} 3/0
[]
+24.9 +16.5 60 +28 +39 жарко 1011.3 950.8
00 22.06 В 2 16 км {осадки} 5/0
[]
+22.4 +16.8 71 +27 +30 душно 1010.8 950.4 +13.1 +30.7 2
03 22.06 З 3 16 км {осадки} 3/0
[]
+18.2 +15.1 82 +19 +19 1012.3 952.0
06 22.06 Ю 2 16 км {осадки} 3/0
[]
+16.0 +14.4 90 +16 +16 1011.5 951.3 +13.1 +30.7 0.5 20
09 22.06 СВ 1 16 км 10/0
[]
+14.7 +14.1 96 +15 +15 1011.3 950.8
12 22.06 В 3 16 км ясно +15.9 +14.1 89 +15 +17 1011.2 950.7 +14.4 +30.7
15 22.06 В 4 16 км ясно +17.9 +14.0 78 +18 +23 1011.3 950.6
18 22.06 В 5 16 км ясно +22.8 +14.5 59 +26 +34 жарко 1010.6 950.1 +14.4 +22.9
21 22.06 СВ 5 16 км ясно +24.8 +14.0 51 +27 +33 жарко 1009.6 949.2
00 23.06 В 6 16 км 3/3 1000 м
[]
+25.3 +13.6 48 +27 +29 жарко 1008.9 948.6 +14.4 +26.1
03 23.06 В 5 16 км ясно +21.1 +12.6 58 +23 +23 комфорт 1010.1 949.7
06 23.06 В 5 16 км 3/3 1000 м
[]
+16.6 +10.7 68 +16 +16 1011.4 950.9 +14.4 +26.1 0
09 23.06 В 3 16 км 3/3 1000 м
[]
+13.7 +10.2 79 +13 +13 1011.6 951.0
12 23.06 ЮВ 2 16 км ясно +13.9 +10.2 78 +14 +16 1012.5 951.9 +12.7 +26.1
15 23.06 В 3 16 км 9/9 1000 м
[]
+17.5 +12.0 70 +17 +18 1013.7 953.0
18 23.06 ЮВ 4 16 км 9/9 1000 м
[]
+21.4 +12.1 55 +24 +24 комфорт 1013.9 953.2 +12.7 +22.1
21 23.06 ЮВ 4 16 км 9/9 1500 м
[]
+23.5 +11.2 46 +25 +26 комфорт 1013.9 953.1
00 24.06 ЮВ 4 16 км 5/5 1500 м
[]
+23.7 +10.5 43 +25 +26 комфорт 1013.1 952.4 +12.7 +25.0
03 24.06 Ю 3 16 км 3/3 1500 м
[]
+21.2 +12.1 56 +23 +23 комфорт 1014.1 953.4
06 24.06 Ю 4 16 км ясно +17.6 +12.5 72 +17 +17 1014.5 953.8 +12.7 +25.0 22
09 24.06 Ю 2 16 км ясно +16.2 +13.2 82 +16 +16 1014.9 954.2
12 24.06 ЮЗ 6 16 км 10/10 300 м
[]
+15.9 +13.2 84 +14 +14 1015.1 954.4 +15.3 +25.0
15 24.06 ЮЗ 6 16 км 10/10 600 м
[]
+18.8 +13.3 70 +19 +19 1014.9 954.2
18 24.06 ЮЗ 7 16 км 9/9 600 м
[]
+21.1 +13.4 61 +23 +24 комфорт 1013.9 953.2 +15.3 +21.7
21 24.06 ЮЗ 6 16 км 3/3 1000 м
[]
+24.3 +13.4 51 +27 +29 жарко 1012.2 951.7

 

Местоположение метеостанции Dubawnt Lake (Канада): широта 63.23 долгота -101.70 высота над уровнем моря 237 м.

В архиве по умолчанию представлена погода в Dubawnt Lake за последнюю неделю. Архивные данные за месяц целиком и за предыдущие месяцы, начиная с января 2011 года, Вы можете получить, выбрав интересующий диапазон дат из раскрывающегося списка и нажав кнопку "Ввод!".


*Определитесь, кто Вы:
робот инопланетянин человек

Внимание! Время в таблицах - всемирное. Для получения местного времени необходимо прибавить поправку, которая в Dubawnt Lake равна -6 ч.

Смотрите также архив погоды в соседних городах и на ближайших метеорологических станциях:

Погода в Hanbury River ARS (Канада) (176 км)
Погода в Robertson Lake (Канада) (211 км)
Погода в Baker Lake Airport (Канада) (302 км)
Погода в Baker Lake Climate (Канада) (305 км)
Погода в Fort Reliance (aut) (Канада) (379 км)
Погода в Porter Lake (Канада) (387 км)
Погода в Back River MAPS (Канада) (402 км)
Погода в Lustel Ke A (Канада) (461 км)
Погода в Arviat Climate (Канада) (462 км)
Погода в Arviat (Канада) (462 км)

Пояснения к столбцам:

Ветер - указаны скорость ветра в м/с - средняя за 10 мин, порывы в срок и между сроками (в фигурных скобках) и направление, откуда дует ветер: С - северный, СВ - северо-восточный, В - восточный, ЮВ - юго-восточный, Ю - южный, ЮЗ - юго-западный, З - западный, СЗ - северо-западный.
Видимость - горизонтальная дальность видимости в метрах или километрах. При видимости от 1 до 10 км при отсутствии осадков обычно наблюдается дымка, при ухудшении видимости до 1 км и менее - туман. В сухую погоду видимость может ухудшаться дымом, пылью или мглою.
Явления - указаны атмосферные явления, наблюдавшиеся в срок или в последний час перед сроком; фигурными скобками обозначены явления, наблюдавшиеся между сроками (за 1-3 часа до срока); квадратными скобками обозначены град или гололедные отложения с указанием их диаметра в мм.
Облачность - указаны через наклонную черту общая и нижняя облачность в баллах и высота нижней границы облаков в метрах; квадратными скобками обозначены формы облаков: Ci - перистые, Cs - перисто-слоистые, Cc - перисто-кучевые, Ac - высококучевые, As - высокослоистые, Sc - слоисто-кучевые, Ns - слоисто-дождевые, Cu - кучевые, Cb - кучево-дождевые. Подробнее классификацию облаков см. в Атласе облаков (PDF).
T - Температура воздуха - температура, измеренная на высоте 2 м над землей.
Td - Температура точки росы - температура, при понижении до которой содержащийся в воздухе водяной пар достигнет насыщения.
f - Относительная влажность воздуха - влажноcть воздуха, измеренная на высоте 2 м над землей.
Te - Эффективная температура - температура, которую ощущает одетый по сезону человек в тени. Характеристика душности погоды. При расчете учитывается влияние влажности воздуха и скорости ветра на теплоощущения человека.
Tes - Эффективная температура на солнце - температура, которую ощущает человек, с поправкой на солнечный нагрев. Характеристика знойности погоды. Зависит от высоты солнца над горизонтом, облачности и скорости ветра. Ночью, в пасмурную погоду, а также при ветре 12 м/с и более поправка равна нулю.
P - Атмосферное давление - приведенное к уровню моря атмосферное давление.
Po - Атмосферное давление - измеренное на уровне метеостанции атмосферное давление.
Tmin - Минимальная температура - минимум температуры воздуха на высоте 2 м над землей.
Tmax - Максимальная температура - максимум температуры воздуха на высоте 2 м над землей.
R - Количество осадков - Количество выпавших осадков за период времени, мм. При наведении курсора мыши на число - период времени, за который выпало указанное количество осадков.
R24 - Количество осадков - Количество выпавших осадков за 24 часа, мм.
S - Снежный покров - Высота снежного покрова, см. При наведении курсора мыши на число - состояние снежного покрова и степень покрытия местности в баллах.